Location: Seattle
(47.6064°N, 122.3308°W)
Time: 07:58:20
(UTC-08:00)

Vanguard 1 Rocket - Visible Passes

Search period start: 24 November 2020 00:00
Search period end: 04 December 2020 00:00
Orbit: 656 x 4221 km, 34.3° (Epoch: 23 November)

Date Brightness Start Highest point End Pass type
(mag) Time Alt. Az. Time Alt. Az. Time Alt. Az.
24 Nov 11.1 00:50:23 23° ESE 00:50:23 23° ESE 00:58:05 10° E visible
24 Nov 10.4 03:07:40 41° S 03:12:04 45° SSE 03:25:36 10° E visible
24 Nov 9.9 05:24:58 16° WSW 05:39:57 47° S 05:49:59 10° ESE visible
24 Nov 11.6 23:43:16 10° E 23:43:16 10° E 23:43:33 10° E visible
25 Nov 10.6 02:00:33 40° SSE 02:00:33 40° SSE 02:14:03 10° E visible
25 Nov 10.1 04:17:51 32° SW 04:27:32 50° S 04:39:34 10° ESE visible
25 Nov 10.0 06:38:59 10° W 06:54:10 38° SSW 07:02:42 10° SE visible
26 Nov 11.1 00:53:23 27° ESE 00:53:23 27° ESE 01:01:38 10° E visible
26 Nov 10.3 03:10:40 46° SSW 03:14:30 49° S 03:28:39 10° ESE visible
26 Nov 10.0 05:27:57 18° WSW 05:42:29 47° SSW 05:52:52 10° SE visible
26 Nov 11.5 23:46:10 13° E 23:46:10 13° E 23:47:53 10° E visible
27 Nov 10.6 02:03:27 44° SSE 02:03:27 44° SSE 02:17:09 10° E visible
27 Nov 10.1 04:20:44 35° SW 04:30:02 52° S 04:42:30 10° ESE visible
27 Nov 10.1 06:41:21 10° W 06:56:32 35° SSW 07:05:18 10° SSE visible
28 Nov 11.0 00:56:12 30° ESE 00:56:12 30° ESE 01:04:54 10° E visible
28 Nov 10.3 03:13:29 49° SSW 03:16:54 52° S 03:31:36 10° ESE visible
28 Nov 10.1 05:30:46 19° WSW 05:44:55 45° SSW 05:55:39 10° SE visible
28 Nov 11.5 23:48:56 15° E 23:48:56 15° E 23:51:33 10° E visible
29 Nov 10.5 02:06:12 48° SSE 02:06:12 48° SSE 02:20:08 10° E visible
29 Nov 10.1 04:23:29 36° WSW 04:32:28 52° S 04:45:22 10° ESE visible
29 Nov 10.3 06:43:47 10° W 06:58:46 32° SW 07:07:44 10° SSE visible
29 Nov11.922:41:38E22:41:38E21:58:52Svisible
30 Nov 11.0 00:58:54 32° ESE 00:58:54 32° ESE 01:07:57 10° E visible
30 Nov 10.3 03:16:10 52° SSW 03:19:15 54° S 03:34:30 10° ESE visible
30 Nov 10.2 05:33:27 20° W 05:47:14 43° SSW 05:58:19 10° SE visible
30 Nov 11.4 23:51:35 16° E 23:51:35 16° E 23:54:50 10° E visible
01 Dec 10.5 02:08:51 50° SSE 02:08:51 50° SSE 02:23:02 10° E visible
01 Dec 10.2 04:26:08 37° WSW 04:34:49 51° SSW 04:48:08 10° SE visible
01 Dec 10.4 06:46:21 10° W 07:00:51 28° SW 07:09:56 10° SSE visible
01 Dec11.822:44:16E22:44:16E22:01:26Svisible
02 Dec 10.9 01:01:32 34° ESE 01:01:32 34° ESE 01:10:52 10° E visible
02 Dec 10.3 03:18:48 53° SSW 03:21:34 55° S 03:37:19 10° ESE visible
02 Dec 10.3 05:36:04 20° W 05:49:25 40° SSW 06:00:49 10° SSE visible
02 Dec 11.4 23:54:12 18° E 23:54:12 18° E 23:57:52 10° E visible
03 Dec 10.5 02:11:28 52° SSE 02:11:28 52° SSE 02:25:51 10° ESE visible
03 Dec 10.3 04:28:44 37° WSW 04:37:04 49° SSW 04:50:48 10° SE visible
03 Dec 10.6 06:49:07 10° W 07:02:47 24° SW 07:11:50 10° S visible
03 Dec11.622:46:52E22:46:52E22:04:13SSWvisible
